TimeEST,TemperatureF,Dew PointF,Humidity,Sea Level PressureIn,VisibilityMPH,Wind Direction,Wind SpeedMPH,Gust SpeedMPH,PrecipitationIn,Events,Conditions,WindDirDegrees,DateUTC
12:55 AM,28.9,24.1,82,30.17,10.0,Calm,Calm,-,N/A,,Overcast,0,2013-02-26 05:55:00
1:55 AM,28.9,24.1,82,30.19,10.0,Calm,Calm,-,N/A,,Overcast,0,2013-02-26 06:55:00
2:55 AM,28.0,24.1,85,30.18,10.0,ENE,3.5,-,N/A,,Overcast,70,2013-02-26 07:55:00
3:55 AM,28.0,24.1,85,30.18,10.0,East,3.5,-,N/A,,Overcast,80,2013-02-26 08:55:00
4:55 AM,28.0,24.1,85,30.18,10.0,East,4.6,-,N/A,,Overcast,80,2013-02-26 09:55:00
5:55 AM,28.0,24.1,85,30.17,10.0,ENE,4.6,-,N/A,,Overcast,70,2013-02-26 10:55:00
6:55 AM,28.0,24.1,85,30.16,10.0,Calm,Calm,-,N/A,,Overcast,0,2013-02-26 11:55:00
7:55 AM,28.9,24.1,82,30.17,10.0,East,5.8,-,N/A,,Overcast,80,2013-02-26 12:55:00
8:55 AM,28.9,25.0,85,30.16,10.0,East,5.8,-,N/A,,Overcast,80,2013-02-26 13:55:00
9:55 AM,30.9,24.1,76,30.17,10.0,East,6.9,-,N/A,,Overcast,90,2013-02-26 14:55:00
10:55 AM,30.9,23.0,72,30.15,10.0,East,11.5,-,N/A,,Overcast,100,2013-02-26 15:55:00
11:55 AM,32.0,23.0,69,30.12,10.0,ESE,10.4,16.1,N/A,,Overcast,110,2013-02-26 16:55:00
12:33 PM,32.0,19.9,61,30.09,10.0,East,15.0,21.9,N/A,,Overcast,100,2013-02-26 17:33:00
12:55 PM,32.0,21.0,64,30.11,10.0,East,13.8,19.6,N/A,,Overcast,100,2013-02-26 17:55:00
1:55 PM,33.1,21.0,61,30.07,10.0,East,6.9,-,N/A,,Overcast,80,2013-02-26 18:55:00
2:55 PM,33.1,21.0,61,30.04,10.0,ENE,6.9,-,N/A,,Overcast,60,2013-02-26 19:55:00
3:55 PM,33.1,21.9,64,30.02,10.0,East,9.2,-,N/A,,Overcast,80,2013-02-26 20:55:00
4:55 PM,33.1,21.9,64,30.01,10.0,ENE,8.1,16.1,N/A,,Overcast,70,2013-02-26 21:55:00
5:55 PM,32.0,21.9,66,30.00,10.0,ENE,10.4,-,N/A,,Overcast,70,2013-02-26 22:55:00
6:55 PM,30.9,21.9,69,30.01,10.0,East,11.5,-,N/A,,Overcast,80,2013-02-26 23:55:00
7:55 PM,30.0,21.0,69,30.02,10.0,ENE,9.2,-,N/A,,Overcast,70,2013-02-27 00:55:00
8:28 PM,28.9,19.9,69,29.98,10.0,NE,6.9,-,N/A,,Partly Cloudy,50,2013-02-27 01:28:00
8:55 PM,28.9,19.9,69,29.99,10.0,ENE,5.8,-,N/A,,Clear,70,2013-02-27 01:55:00
9:55 PM,28.9,21.0,72,29.96,10.0,Variable,6.9,16.1,N/A,,Clear,0,2013-02-27 02:55:00
10:55 PM,28.9,21.0,72,29.92,10.0,ENE,9.2,-,N/A,,Clear,60,2013-02-27 03:55:00
11:55 PM,28.9,21.0,72,29.89,10.0,ENE,10.4,-,N/A,,Clear,60,2013-02-27 04:55:00